Location: Centerville
(32.8776°N, 96.6203°W)
Time: 04:57:17
(UTC+00:00)

Delta 128 - Pass Details

Date: 17 June 2021
Orbit: 608 x 1216 km, 28.0° (Epoch: 29 July)

Event Time Altitude Azimuth Distance (km) Brightness Sun altitude
Rises 02:47:14 0° 258° (WSW) 2,851 7.6 -13.1°
Reaches altitude 10° 02:49:35 10° 253° (WSW) 1,946 6.6 -13.5°
Maximum altitude 02:53:51 46° 179° (S) 832 3.9 -14.1°
Enters shadow 02:56:24 23° 117° (ESE) 1,359 4.7 -14.5°
